KB7YYZ Weather Reports


time (UTC)temp
F
wind
direction
speed
knots
gust
knots
rain 1hr
in
rain 24hr
in
rain mn
in
humidity
%
barometer
mb
20260507084033 67 22 0.9 0.9 0.00 0.00 0.00 32 1009.2
20260507083021 67 42 0.9 0.9 0.00 0.00 0.00 32 1009.4
20260507082044 68 354 0.9 0.9 0.00 0.00 0.00 31 1009.4
20260507081108 68 29 0.9 0.9 0.00 0.00 0.00 30 1009.4
20260507080044 68 358 0.9 0.9 0.00 0.00 0.00 30 1009.4
20260507075022 69 67 0.0 0.9 0.00 0.00 0.00 30 1009.2
20260507074019 69 41 0.9 0.9 0.00 0.00 0.00 30 1009.4
20260507073019 69 42 0.9 0.9 0.00 0.00 0.00 30 1009.4
20260507072026 70 71 0.0 0.9 0.00 0.00 0.00 29 1009.4
20260507071026 70 40 0.0 0.9 0.00 0.00 0.00 29 1009.4
20260507070053 70 51 0.0 0.0 0.00 0.00 0.00 29 1009.5
20260507065033 70 3 0.0 0.0 0.00 0.00 0.00 27 1009.4
20260507064054 71 347 0.9 0.9 0.00 0.00 0.00 27 1009.4
20260507063022 71 3 0.9 0.9 0.00 0.00 0.00 27 1009.2
20260507062041 71 349 0.9 0.9 0.00 0.00 0.00 29 1009.2
20260507061037 71 4 0.9 1.7 0.00 0.00 0.00 29 1009.2
20260507060133 71 3 0.9 1.7 0.00 0.00 0.00 28 1009.2
20260507055107 71 342 0.9 0.9 0.00 0.00 0.00 28 1009.2
20260507054040 72 341 0.9 0.9 0.00 0.00 0.00 28 1009.2
20260507053026 73 337 0.9 0.9 0.00 0.00 0.00 26 1009.2
20260507052034 73 332 0.9 0.9 0.00 0.00 0.00 26 1009.1
20260507051033 73 349 0.9 0.9 0.00 0.00 0.00 25 1009.1
20260507050024 74 13 0.9 1.7 0.00 0.00 0.00 25 1009.1
20260507045028 74 344 0.9 1.7 0.00 0.00 0.00 24 1009.0
20260507044022 74 1 0.9 0.9 0.00 0.00 0.00 24 1009.0
20260507043024 74 22 0.9 0.9 0.00 0.00 0.00 24 1008.9
20260507042022 74 31 0.9 0.9 0.00 0.00 0.00 24 1008.9
20260507041023 74 34 0.0 0.9 0.00 0.00 0.00 24 1008.8
20260507040032 74 346 0.0 0.0 0.00 0.00 0.00 24 1008.7
20260507035020 75 23 0.0 0.0 0.00 0.00 0.00 23 1008.6
20260507034046 75 0.0 0.0 0.00 0.00 0.00 23 1008.5
20260507033031 75 0.0 0.0 0.00 0.00 0.00 23 1008.4
20260507032033 76 0.0 0.0 0.00 0.00 0.00 22 1008.2
20260507031032 76 0.0 0.0 0.00 0.00 0.00 22 1008.1
20260507030031 77 0.0 0.0 0.00 0.00 0.00 21 1007.9
20260507025023 77 315 0.0 0.0 0.00 0.00 0.00 21 1007.7
20260507024031 77 342 0.9 0.9 0.00 0.00 0.00 21 1007.7
20260507023032 78 331 0.9 0.9 0.00 0.00 0.00 20 1007.6
20260507022023 78 299 0.9 0.9 0.00 0.00 0.00 20 1007.6
20260507021032 79 302 0.9 0.9 0.00 0.00 0.00 20 1007.5
20260507020019 79 290 0.9 1.7 0.00 0.00 0.00 20 1007.4
20260507015046 80 301 0.9 0.9 0.00 0.00 0.00 19 1007.4
20260507014034 80 279 0.9 1.7 0.00 0.00 0.00 18 1007.3
20260507013025 81 315 0.9 1.7 0.00 0.00 0.00 19 1007.3
20260507012113 81 296 1.7 1.7 0.00 0.00 0.00 20 1007.3
20260507011027 81 271 1.7 1.7 0.00 0.00 0.00 20 1007.4
20260507010025 82 269 0.9 1.7 0.00 0.00 0.00 20 1007.4
20260507005023 82 292 1.7 1.7 0.00 0.00 0.00 20 1007.3
20260507004043 82 274 1.7 1.7 0.00 0.00 0.00 20 1007.3
20260507003040 82 276 1.7 1.7 0.00 0.00 0.00 20 1007.2
20260507002031 82 277 1.7 1.7 0.00 0.00 0.00 20 1007.2
20260507001020 83 253 1.7 1.7 0.00 0.00 0.00 20 1007.3
20260507000026 83 273 1.7 1.7 0.00 0.00 0.00 20 1007.2
20260506235019 83 264 1.7 1.7 0.00 0.00 0.00 21 1007.2
20260506234051 83 281 1.7 2.6 0.00 0.00 0.00 21 1007.2
20260506233030 83 319 1.7 1.7 0.00 0.00 0.00 21 1007.2
20260506232025 83 309 1.7 1.7 0.00 0.00 0.00 21 1007.4
20260506231023 83 261 1.7 1.7 0.00 0.00 0.00 21 1007.5
20260506230057 84 260 1.7 2.6 0.00 0.00 0.00 21 1007.6
20260506225031 84 256 1.7 1.7 0.00 0.00 0.00 21 1007.6
20260506224030 84 314 1.7 1.7 0.00 0.00 0.00 22 1007.7
20260506223022 83 259 2.6 2.6 0.00 0.00 0.00 22 1007.7
20260506222041 83 236 1.7 1.7 0.00 0.00 0.00 21 1007.9
20260506221027 84 309 1.7 1.7 0.00 0.00 0.00 22 1008.0
20260506220032 83 264 1.7 1.7 0.00 0.00 0.00 22 1008.1
20260506215030 83 352 1.7 1.7 0.00 0.00 0.00 22 1008.2
20260506214031 83 278 1.7 1.7 0.00 0.00 0.00 23 1008.4
20260506213028 83 270 0.0 0.9 0.00 0.00 0.00 23 1008.4
20260506212024 83 0.0 0.0 0.00 0.00 0.00 24 1008.5
20260506211045 83 0.0 0.0 0.00 0.00 0.00 24 1008.6
20260506210040 83 0.0 0.0 0.00 0.00 0.00 25 1008.7
20260506205035 82 0.0 0.0 0.00 0.00 0.00 25 1008.8
20260506204030 82 0.0 0.0 0.00 0.00 0.00 24 1008.9
20260506203102 82 0.0 0.0 0.00 0.00 0.00 24 1009.0
20260506202022 81 0.0 0.0 0.00 0.00 0.00 25 1009.1
20260506201032 82 0.0 0.0 0.00 0.00 0.00 26 1009.2
20260506200029 82 0.0 0.0 0.00 0.00 0.00 26 1009.4
20260506195030 81 0.0 0.0 0.00 0.00 0.00 26 1009.4
20260506194029 81 0.0 0.0 0.00 0.00 0.00 27 1009.6
20260506193044 80 0.0 0.0 0.00 0.00 0.00 28 1009.7
20260506192033 80 0.0 0.0 0.00 0.00 0.00 28 1009.9
20260506191029 80 0.0 0.0 0.00 0.00 0.00 29 1010.0
20260506190026 79 0.0 0.0 0.00 0.00 0.00 29 1010.0
20260506185029 79 0.0 0.0 0.00 0.00 0.00 30 1010.1
20260506184021 79 0.0 0.0 0.00 0.00 0.00 29 1010.1
20260506183034 79 303 0.0 0.9 0.00 0.00 0.00 31 1010.3
20260506182033 79 258 0.9 0.9 0.00 0.00 0.00 31 1010.4
20260506181021 78 251 1.7 1.7 0.00 0.00 0.00 31 1010.5
20260506180029 77 204 0.9 1.7 0.00 0.00 0.00 31 1010.6
20260506175025 78 245 1.7 1.7 0.00 0.00 0.00 32 1010.6
20260506174025 77 313 0.9 0.9 0.00 0.00 0.00 33 1010.7
20260506173022 77 329 0.9 0.9 0.00 0.00 0.00 33 1010.7
20260506172019 77 306 0.9 0.9 0.00 0.00 0.00 33 1010.6
20260506171029 76 173 0.9 0.9 0.00 0.00 0.00 33 1010.7
20260506170048 76 246 0.9 0.9 0.00 0.00 0.00 34 1010.7
20260506165020 75 355 0.9 0.9 0.00 0.00 0.00 35 1010.7
20260506164029 75 40 0.0 0.9 0.00 0.00 0.00 36 1010.7
20260506163033 74 190 0.0 0.9 0.00 0.00 0.00 38 1010.6
20260506162030 73 184 0.0 0.9 0.00 0.00 0.00 39 1010.6
20260506161024 72 237 0.0 0.9 0.00 0.00 0.00 40 1010.6
20260506160042 72 135 0.0 0.9 0.00 0.00 0.00 42 1010.5
20260506155024 72 293 0.0 0.0 0.00 0.00 0.00 44 1010.6
20260506154052 71 0.0 0.0 0.00 0.00 0.00 45 1010.6
20260506153030 70 149 0.0 0.0 0.00 0.00 0.00 45 1010.7
20260506152028 69 232 0.0 0.9 0.00 0.00 0.00 47 1010.7
20260506151028 68 225 0.0 0.0 0.00 0.00 0.00 48 1010.6
20260506150021 68 302 0.0 0.0 0.00 0.00 0.00 50 1010.6
20260506145028 67 215 0.0 0.9 0.00 0.00 0.00 50 1010.6
20260506144023 66 0.0 0.0 0.00 0.00 0.00 51 1010.7
20260506143028 65 0.0 0.0 0.00 0.00 0.00 52 1010.7
20260506142048 64 0.0 0.0 0.00 0.00 0.00 53 1010.7
20260506141024 63 0.0 0.0 0.00 0.00 0.00 54 1010.6
20260506140044 63 0.0 0.0 0.00 0.00 0.00 55 1010.6
20260506135020 62 0.0 0.0 0.00 0.00 0.00 55 1010.6
20260506134050 61 0.0 0.9 0.00 0.00 0.00 56 1010.5
20260506133028 60 0.0 0.0 0.00 0.00 0.00 57 1010.4
20260506132028 59 0.0 0.0 0.00 0.00 0.00 56 1010.4
20260506131021 59 0.0 0.0 0.00 0.00 0.00 56 1010.3
20260506130027 59 0.0 0.0 0.00 0.00 0.00 56 1010.2
20260506125027 59 0.0 0.0 0.00 0.00 0.00 56 1010.1
20260506124109 59 0.0 0.0 0.00 0.00 0.00 56 1010.0
20260506123028 59 0.0 0.0 0.00 0.00 0.00 56 1009.9
20260506122028 60 0.0 0.0 0.00 0.00 0.00 55 1009.9
20260506121026 60 0.0 0.0 0.00 0.00 0.00 55 1009.8
20260506120033 60 0.0 0.0 0.00 0.00 0.00 55 1009.7
20260506115027 61 0.0 0.0 0.00 0.00 0.00 54 1009.7
20260506114020 61 0.0 0.0 0.00 0.00 0.00 54 1009.6
20260506113026 61 0.0 0.0 0.00 0.03 0.00 55 1009.5
20260506112022 61 0.0 0.0 0.00 0.03 0.00 55 1009.5
20260506111027 61 0.0 0.0 0.00 0.03 0.00 55 1009.3
20260506110054 61 0.0 0.0 0.00 0.03 0.00 55 1009.2
20260506105029 61 0.0 0.0 0.00 0.03 0.00 55 1009.2
20260506104027 61 0.0 0.0 0.00 0.03 0.00 54 1009.2
20260506103027 61 0.0 0.0 0.00 0.03 0.00 54 1009.1
20260506102027 62 0.0 0.0 0.00 0.03 0.00 53 1009.0
20260506101019 62 0.0 0.0 0.00 0.06 0.00 53 1008.9
20260506100026 62 0.0 0.0 0.00 0.06 0.00 53 1008.8
20260506095028 62 0.0 0.0 0.00 0.06 0.00 53 1008.8
20260506094026 62 0.0 0.0 0.00 0.06 0.00 53 1008.7
20260506093022 62 0.0 0.0 0.00 0.06 0.00 53 1008.7
20260506092028 63 0.0 0.0 0.00 0.06 0.00 53 1008.7
20260506091027 63 0.0 0.0 0.00 0.06 0.00 52 1008.7
20260506090026 63 0.0 0.0 0.00 0.06 0.00 51 1008.7
20260506085046 63 0.0 0.0 0.00 0.06 0.00 50 1008.8